When you browse on this site, cookies collect data to enhance your experience and personalize the content and advertising you see.
Visit our Privacy Policy to learn more. By continuing to use the site, you agree to this use of cookies and data.
  • In Latvia
  • List of Countries
  • For 7 days
  • Water Temperature
  • Satellite Maps
  • Weather Map
  • Weather Widgets
  • user-avatar
    Login

    Hourly Weather Magaria

    Today, 17 February, Sunday

    Time Temperature Precipitation Wind Pressure Humidity
    00:00 +18°C° 0 mm 4 mps 727 mmHg 14%
    01:00 +17°C° 0 mm 4 mps 728 mmHg 15%
    02:00 +17°C° 0 mm 4 mps 727 mmHg 16%
    03:00 +15°C° 0 mm 4 mps 727 mmHg 16%
    04:00 +15°C° 0 mm 4 mps 727 mmHg 17%
    05:00 +14°C° 0 mm 4 mps 727 mmHg 18%
    06:00 +14°C° 0 mm 4 mps 727 mmHg 20%
    07:00 +14°C° 0 mm 4 mps 728 mmHg 21%
    08:00 +16°C° 0 mm 5 mps 728 mmHg 19%
    09:00 +20°C° 0 mm 6 mps 728 mmHg 17%
    10:00 +22°C° 0 mm 7 mps 729 mmHg 14%
    11:00 +26°C° 0 mm 6 mps 728 mmHg 13%
    12:00 +28°C° 0 mm 6 mps 728 mmHg 11%
    13:00 +29°C° 0 mm 6 mps 728 mmHg 10%
    14:00 +30°C° 0 mm 6 mps 727 mmHg 9%
    15:00 +30°C° 0 mm 5 mps 727 mmHg 9%
    16:00 +32°C° 0 mm 5 mps 726 mmHg 9%
    17:00 +29°C° 0 mm 4 mps 726 mmHg 10%
    18:00 +27°C° 0 mm 4 mps 726 mmHg 11%
    19:00 +26°C° 0 mm 3 mps 726 mmHg 12%
    20:00 +25°C° 0 mm 4 mps 726 mmHg 12%
    21:00 +23°C° 0 mm 4 mps 727 mmHg 12%
    22:00 +22°C° 0 mm 4 mps 727 mmHg 12%
    23:00 +21°C° 0 mm 4 mps 727 mmHg 12%

    Tomorrow, 18 February, Monday

    Time Temperature Precipitation Wind Pressure Humidity
    00:00 +21°C° 0 mm 3 mps 727 mmHg 12%
    01:00 +20°C° 0 mm 3 mps 726 mmHg 12%
    02:00 +19°C° 0 mm 3 mps 726 mmHg 13%
    03:00 +19°C° 0 mm 4 mps 726 mmHg 13%
    04:00 +18°C° 0 mm 4 mps 726 mmHg 14%
    05:00 +18°C° 0 mm 4 mps 726 mmHg 14%
    06:00 +17°C° 0 mm 4 mps 726 mmHg 15%
    07:00 +17°C° 0 mm 4 mps 726 mmHg 16%
    08:00 +20°C° 0 mm 5 mps 727 mmHg 14%
    09:00 +22°C° 0 mm 6 mps 727 mmHg 13%
    10:00 +26°C° 0 mm 6 mps 728 mmHg 11%
    11:00 +28°C° 0 mm 6 mps 727 mmHg 10%
    12:00 +30°C° 0 mm 6 mps 727 mmHg 9%
    13:00 +33°C° 0 mm 5 mps 726 mmHg 8%
    14:00 +34°C° 0 mm 5 mps 726 mmHg 8%
    15:00 +34°C° 0 mm 5 mps 725 mmHg 8%
    16:00 +35°C° 0 mm 4 mps 724 mmHg 8%
    17:00 +33°C° 0 mm 4 mps 724 mmHg 9%
    18:00 +30°C° 0 mm 3 mps 724 mmHg 10%
    19:00 +28°C° 0 mm 3 mps 724 mmHg 11%
    20:00 +27°C° 0 mm 3 mps 724 mmHg 12%
    21:00 +26°C° 0 mm 3 mps 725 mmHg 12%
    22:00 +25°C° 0 mm 4 mps 725 mmHg 12%
    23:00 +23°C° 0 mm 4 mps 725 mmHg 12%

    Day after tomorrow, 19 February, Tuesday

    Time Temperature Precipitation Wind Pressure Humidity
    00:00 +23°C° 0 mm 4 mps 725 mmHg 12%
    01:00 +22°C° 0 mm 4 mps 725 mmHg 13%
    02:00 +21°C° 0 mm 4 mps 724 mmHg 12%
    03:00 +21°C° 0 mm 4 mps 724 mmHg 12%
    04:00 +20°C° 0 mm 4 mps 724 mmHg 12%
    05:00 +20°C° 0 mm 4 mps 724 mmHg 13%
    06:00 +19°C° 0 mm 4 mps 724 mmHg 14%
    07:00 +18°C° 0 mm 3 mps 725 mmHg 14%
    08:00 +21°C° 0 mm 4 mps 725 mmHg 13%
    09:00 +25°C° 0 mm 5 mps 726 mmHg 12%
    10:00 +27°C° 0 mm 6 mps 727 mmHg 10%
    11:00 +29°C° 0 mm 6 mps 726 mmHg 9%
    12:00 +32°C° 0 mm 6 mps 726 mmHg 8%
    13:00 +35°C° 0 mm 5 mps 725 mmHg 7%
    14:00 +35°C° 0 mm 5 mps 724 mmHg 7%
    15:00 +36°C° 0 mm 5 mps 723 mmHg 7%
    16:00 +36°C° 0 mm 4 mps 722 mmHg 7%
    17:00 +34°C° 0 mm 4 mps 722 mmHg 8%
    18:00 +32°C° 0 mm 4 mps 723 mmHg 9%
    19:00 +29°C° 0 mm 3 mps 723 mmHg 10%
    20:00 +28°C° 0 mm 4 mps 723 mmHg 10%
    21:00 +27°C° 0 mm 4 mps 724 mmHg 11%
    22:00 +26°C° 0 mm 4 mps 725 mmHg 11%
    23:00 +25°C° 0 mm 4 mps 724 mmHg 11%

    20 February, Wednesday

    Time Temperature Precipitation Wind Pressure Humidity
    00:00 +23°C° 0 mm 4 mps 724 mmHg 11%
    01:00 +22°C° 0 mm 4 mps 724 mmHg 12%
    02:00 +22°C° 0 mm 4 mps 724 mmHg 12%
    03:00 +21°C° 0 mm 4 mps 723 mmHg 12%
    04:00 +21°C° 0 mm 5 mps 723 mmHg 12%
    05:00 +20°C° 0 mm 4 mps 723 mmHg 12%
    06:00 +20°C° 0 mm 4 mps 724 mmHg 13%
    07:00 +19°C° 0 mm 4 mps 724 mmHg 13%
    08:00 +22°C° 0 mm 5 mps 725 mmHg 12%
    09:00 +26°C° 0 mm 5 mps 726 mmHg 10%
    10:00 +28°C° 0 mm 6 mps 726 mmHg 8%
    11:00 +30°C° 0 mm 5 mps 726 mmHg 8%
    12:00 +34°C° 0 mm 5 mps 725 mmHg 7%
    13:00 +36°C° 0 mm 4 mps 724 mmHg 6%
    14:00 +36°C° 0 mm 4 mps 724 mmHg 6%
    15:00 +37°C° 0 mm 4 mps 723 mmHg 6%
    16:00 +38°C° 0 mm 3 mps 722 mmHg 5%
    17:00 +35°C° 0 mm 3 mps 723 mmHg 6%
    18:00 +33°C° 0 mm 3 mps 723 mmHg 7%
    19:00 +29°C° 0 mm 2 mps 723 mmHg 9%
    20:00 +29°C° 0 mm 3 mps 724 mmHg 9%
    21:00 +28°C° 0 mm 3 mps 724 mmHg 9%
    22:00 +28°C° 0 mm 3 mps 725 mmHg 9%
    23:00 +27°C° 0 mm 3 mps 725 mmHg 10%

    21 February, Thursday

    Time Temperature Precipitation Wind Pressure Humidity
    00:00 +26°C° 0 mm 4 mps 725 mmHg 10%
    01:00 +25°C° 0 mm 4 mps 724 mmHg 11%
    02:00 +25°C° 0 mm 4 mps 724 mmHg 10%
    03:00 +23°C° 0 mm 4 mps 724 mmHg 10%
    04:00 +22°C° 0 mm 4 mps 723 mmHg 10%
    05:00 +22°C° 0 mm 4 mps 724 mmHg 10%
    06:00 +21°C° 0 mm 4 mps 724 mmHg 10%
    07:00 +21°C° 0 mm 3 mps 725 mmHg 10%
    08:00 +25°C° 0 mm 4 mps 725 mmHg 9%
    09:00 +28°C° 0 mm 5 mps 726 mmHg 8%
    10:00 +30°C° 0 mm 5 mps 726 mmHg 6%
    11:00 +33°C° 0 mm 5 mps 726 mmHg 6%
    12:00 +35°C° 0 mm 4 mps 725 mmHg 5%
    13:00 +37°C° 0 mm 3 mps 725 mmHg 5%
    14:00 +38°C° 0 mm 3 mps 724 mmHg 5%
    15:00 +38°C° 0 mm 3 mps 723 mmHg 4%
    16:00 +39°C° 0 mm 3 mps 723 mmHg 4%
    17:00 +37°C° 0 mm 3 mps 723 mmHg 5%
    18:00 +34°C° 0 mm 3 mps 723 mmHg 6%
    19:00 +31°C° 0 mm 2 mps 724 mmHg 7%
    20:00 +30°C° 0 mm 3 mps 724 mmHg 7%
    21:00 +29°C° 0 mm 3 mps 725 mmHg 7%
    22:00 +29°C° 0 mm 3 mps 725 mmHg 7%
    23:00 +28°C° 0 mm 3 mps 725 mmHg 7%

    22 February, Friday

    Time Temperature Precipitation Wind Pressure Humidity
    00:00 +27°C° 0 mm 3 mps 725 mmHg 7%
    01:00 +26°C° 0 mm 4 mps 725 mmHg 7%
    02:00 +25°C° 0 mm 3 mps 724 mmHg 7%
    03:00 +25°C° 0 mm 3 mps 724 mmHg 7%
    04:00 +24°C° 0 mm 3 mps 724 mmHg 7%
    05:00 +24°C° 0 mm 3 mps 724 mmHg 7%
    06:00 +22°C° 0 mm 3 mps 724 mmHg 8%
    07:00 +23°C° 0 mm 2 mps 725 mmHg 8%
    08:00 +26°C° 0 mm 3 mps 725 mmHg 7%
    09:00 +29°C° 0 mm 4 mps 726 mmHg 6%
    10:00 +33°C° 0 mm 5 mps 726 mmHg 5%
    11:00 +35°C° 0 mm 4 mps 726 mmHg 4%
    12:00 +37°C° 0 mm 4 mps 725 mmHg 4%
    13:00 +40°C° 0 mm 4 mps 724 mmHg 4%
    14:00 +40°C° 0 mm 4 mps 723 mmHg 4%
    15:00 +40°C° 0 mm 3 mps 723 mmHg 4%
    16:00 +40°C° 0 mm 2 mps 722 mmHg 4%
    17:00 +37°C° 0 mm 2 mps 722 mmHg 5%
    18:00 +34°C° 0 mm 2 mps 722 mmHg 6%
    19:00 +30°C° 0 mm 1 mps 722 mmHg 7%
    20:00 +29°C° 0 mm 1 mps 722 mmHg 7%
    21:00 +29°C° 0 mm 1 mps 723 mmHg 7%
    22:00 +28°C° 0 mm 1 mps 723 mmHg 7%
    23:00 +28°C° 0 mm 2 mps 723 mmHg 7%
    Show more